Regional Weather Roundup
Issued by NWS

Home | Current Version | Previous Version | Graphics & Text | Print | Product List | Glossary On
Versions: 1 2 3 4 5 6 7 8 9 10 11 12 13 14 15 16 17 18 19 20 21 22 23 24 25 26 27 28 29 30 31 32 33 34 35 36 37 38 39 40 41 42 43 44 45 46 47 48 49 50
000
ASUS45 KSLC 240610
RWRUT

UTAH REGIONAL WEATHER ROUNDUP
NATIONAL WEATHER SERVICE SALT LAKE CITY UT
1200 AM MDT THU JUL 24 2014

UTZ001>011-023>025-240700-

NORTHERN UTAH

CITY           SKY/WX    TMP DP  RH WIND       PRES   REMARKS
HILL AFB       MOCLDY    86  43  21 S13G23    30.00S
LOGAN          NOT AVBL
OGDEN          CLEAR     88  42  20 S17       29.95S
PROVO AIRPORT  PTCLDY    82  45  26 S12       30.05R
SALT LAKE CITY MOCLDY    87  45  23 S18G26    29.94S
VERNAL         CLOUDY    79  42  26 W3        30.14F
WENDOVER       CLEAR     90  27  10 NW25G35   29.94S
WEST JORDAN    CLEAR     84  54  34 S13       30.01F

$$

UTZ012>022-026-027-240700-

SOUTHERN UTAH

CITY           SKY/WX    TMP DP  RH WIND       PRES   REMARKS
BRYCE CANYON   MOCLDY    67  38  34 NW5       30.38R
CEDAR CITY     MOCLDY    79  36  21 SE5       30.17S
MILFORD        PTCLDY    84  36  18 S14       30.08S
MOAB/CYNLANDS  CLEAR     84  39  20 W10       30.07R
PRICE          MOCLDY    80  42  25 E13       30.24F
ST GEORGE      PTCLDY    91  34  13 SE7       29.94S
KANAB            N/A     77  37  24 E7        30.15S

$$

REGIONAL REPORTS     COLORADO/ARIZONA

CITY           SKY/WX    TMP DP  RH WIND       PRES   REMARKS
CRAIG, CO      CLOUDY    74  45  35 E9        30.27F
GRAND JUNCTION PTCLDY    82  38  20 SE9       30.10F
RIFLE          PTCLDY    74  42  31 CALM      30.22R
MONTROSE       CLOUDY    76  46  34 S5        30.24S
CORTEZ         MOCLDY    78  50  37 SE10      30.32R
PAGE, AZ       MOCLDY    90  50  25 S31G47    30.08R HAZE
GRAND CANYON   CLOUDY    78  43  28 S9        30.33R
KINGMAN        CLEAR     83  32  16 S6        30.02S
FLAGSTAFF      CLOUDY    70  49  47 S5        30.40S

$$

REGIONAL REPORTS    NEVADA/IDAHO/WYOMING

CITY           SKY/WX    TMP DP  RH WIND       PRES   REMARKS
LAS VEGAS, NV  PTCLDY    99  19   5 S16       29.83S HX  92
ELY            CLEAR     72  19  13 S16       30.19R
ELKO           CLEAR     62  30  29 SW3       30.10R
POCATELLO, ID  CLEAR     74  41  30 SW13      29.99R
BURLEY         PTCLDY    72  49  44 W10       29.99R
EVANSTON, WY   CLEAR     69  45  41 SE8       30.24F
ROCK SPRINGS   MOCLDY    74  34  23 SE8       30.23S

$$



USA.gov is the U.S. government's official web portal to all federal, state and local government web resources and services.